Content
SEND FEEDBACK

Daily
Averages
Monthly
Summary
United Kingdom

KEMBLE, ENGLAND


Home > Europe > United Kingdom > England
Elevation: 435 feet     Latitude: 51 40N     Longitude: 002 03W

WEATHER
 
SELECT A DAY
Number of Records: 190,108;   Date Range: 7/1/96 - 9/20/14
 
SHARE

PRINT THIS DATA

[ ← Previous Day ]
WEATHER ALMANAC - JULY 22, 2014
[ Next Day → ]
[ °C ]   °F
Weather ElementAverageHighLow
Temperature68.9 °F78 °F (3:00 pm)57 °F (5:00 am)
Dewpoint56.6 °F60 °F (10:00 pm)53 °F (6:00 pm)
Humidity60.1 %94 % (4:00 am)32 % (6:00 pm)
Barometer30.21 in30.24 in (9:00 am)30.19 in (4:00 pm)
Wind Speed6.6 mph10.4 mph (2:00 pm)
Weather ElementAverage
Wind DirectionESE (108.7 °)

Weather ElementTotal
Precipitation---
Cooling Degree Days2.5 (Base 65)
Growing Degree Days17.5 (Base 50)
Averaged from 23 records on July 22, 2014
WEATHER CONDITIONS BREAKOUT
WIND DIRECTION BREAKOUT
WEATHER BY HOUR - JULY 22, 2014
[ °C ]   °F
Local TimeTemperatureDewpointHumidityBarometerVisibilityWind DirectionWind SpeedGust SpeedPrecipitationEventsConditions
1:00 AM60.0 °F57.0 °F87 %30.21 inSouth (190°)1.2 mph
2:00 AM60.0 °F58.0 °F90 %30.21 inWest (260°)3.5 mph
3:00 AM59.0 °F57.0 °F91 %30.21 inWest (270°)2.3 mph
4:00 AM58.0 °F57.0 °F94 %30.21 inNW (320°)2.3 mph
5:00 AM57.0 °F55.0 °F91 %30.22 inNW (310°)4.6 mph
6:00 AM57.0 °F55.0 °F91 %30.23 inNNW (330°)4.6 mph
7:00 AM62.0 °F57.0 °F79 %30.23 inNorth (10°)3.5 mph
8:00 AM63.0 °F56.0 °F70 %30.23 inNNE (20°)4.6 mph
9:00 AM68.0 °F59.0 °F66 %30.24 inNNE (30°)2.3 mph
10:00 AM71.0 °F58.0 °F55 %30.23 inNE (50°)5.8 mph
11:00 AM73.0 °F56.0 °F44 %30.23 inNNE (30°)8.1 mph
12:00 PM74.0 °F56.0 °F42 %30.23 inNorth (10°)6.9 mph
1:00 PM76.0 °F56.0 °F39 %30.22 inNorth (350°)9.2 mphScattered Clouds
2:00 PM76.0 °F55.0 °F37 %30.21 inNorth (10°)10.4 mphScattered Clouds
3:00 PM78.0 °F57.0 °F38 %30.20 inNNE (30°)8.1 mphScattered Clouds
4:00 PM78.0 °F57.0 °F38 %30.19 inNorth (10°)9.2 mphScattered Clouds
5:00 PM78.0 °F55.0 °F35 %30.19 inNNE (20°)10.4 mphScattered Clouds
6:00 PM77.0 °F53.0 °F32 %30.19 inNNE (30°)10.4 mph
7:00 PM77.0 °F55.0 °F36 %30.19 inNNE (20°)10.4 mph
8:00 PM74.0 °F56.0 °F43 %30.19 inNE (40°)8.1 mph
9:00 PM72.0 °F57.0 °F49 %30.20 inNE (40°)8.1 mph
10:00 PM69.0 °F60.0 °F65 %30.22 inENE (60°)8.1 mph
11:00 PM67.0 °F60.0 °F70 %30.22 inENE (60°)9.2 mph
Hourly data recorded from EGDL, located miles away from Kemble, England







STORIES FROM OUR PARTNERS